Find Starlink 35093

NORAD ID: 65478 Int'l Des: 2025-195 Owner: SPXS Country: US Constellation: starlink operational
LEOCIRCULAR

当前视图

正在加载3D地球...

About Starlink 35093

Starlink 35093 (NORAD 65478) is a starlink constellation satellite (v2 mini) launched Sep 3, 2025 by SPXS of US. It operates in LEO, CIRCULAR orbit with a mass of 575.00 kg.

即将过境

Passes for default location (London). Set your location on the main map for personalized predictions.

高度历史

Loading altitude history...

两行轨道根数

1 65478U 25195W 26262.91908103 .00011632 00000-0 38583-3 0 9994
2 65478 53.1581 74.4028 0002163 38.2479 321.8675 15.31714169 59739
Epoch: Sep 19, 2026 • Age: 37 hours

当前状态

高度 472.0 km
远地点 / 近地点 N/A
速度 7.63 km/s
星下点 4.89°N, 80.82°E
发射日期 Sep 3, 2025
运行时间 1 year
类型 internet

技术详情

分类 Payload
质量 575.00 kg
干质量 530.00 kg
长度 0.30 m
跨度 29.00 m
形状 ? Box + pan
制造商 SPXS
平台类型 Starlink V2MO
阶段状态 In Orbit
所有者/国家 SPXS/US

Most Searched